FW1054 Weather Reports


Display with metric or nautical units.
time (UTC)temp
F
wind
direction
speed
MPH
gust
MPH
rain 1hr
in
rain 24hr
in
rain mn
in
humidity
%
barometer
mb
20260506221554 64 308 9.0 17.0 0.00 0.00 0.00 77 1018.4
20260506220051 63 285 7.0 16.0 0.00 0.00 0.00 78 1018.5
20260506214550 64 298 9.0 19.0 0.00 0.00 0.00 77 1018.7
20260506213048 64 291 8.0 15.0 0.00 0.00 0.00 78 1018.8
20260506211548 64 296 9.0 15.0 0.00 0.00 0.00 75 1019.1
20260506210044 63 277 7.0 16.0 0.00 0.00 0.00 77 1018.9
20260506204552 63 279 6.0 18.0 0.00 0.00 0.00 80 1019.0
20260506203040 62 284 8.0 16.0 0.00 0.00 0.00 80 1018.9
20260506201541 62 262 7.0 16.0 0.00 0.00 0.00 80 1019.0
20260506200037 62 290 9.0 17.0 0.00 0.00 0.00 79 1019.4
20260506194542 63 279 6.0 15.0 0.00 0.00 0.00 79 1019.4
20260506193035 62 279 7.0 14.0 0.00 0.00 0.00 79 1019.5
20260506191533 63 300 4.0 17.0 0.00 0.00 0.00 78 1019.7
20260506190028 62 298 6.0 16.0 0.00 0.00 0.00 80 1019.7
20260506184525 62 242 7.0 14.0 0.00 0.00 0.00 79 1019.6
20260506183027 62 294 6.0 13.0 0.00 0.00 0.00 79 1019.8
20260506181527 62 258 9.0 16.0 0.00 0.00 0.00 77 1019.8
20260506180021 62 279 8.0 15.0 0.00 0.00 0.00 78 1019.8
20260506174516 61 271 5.0 12.0 0.00 0.00 0.00 80 1019.7
20260506173016 60 284 5.0 11.0 0.00 0.00 0.00 80 1019.6
20260506171522 60 311 5.0 10.0 0.00 0.00 0.00 81 1019.7
20260506170011 59 246 4.0 11.0 0.00 0.00 0.00 82 1019.6
20260506164510 59 271 5.0 10.0 0.00 0.00 0.00 82 1019.7
20260506163009 58 298 5.0 10.0 0.00 0.00 0.00 82 1019.7
20260506161508 58 273 2.0 8.0 0.00 0.00 0.00 82 1019.6
20260506160003 57 274 4.0 7.0 0.00 0.00 0.00 84 1019.6
20260506154600 57 295 3.0 5.0 0.00 0.00 0.00 88 1019.7
20260506153056 55 348 3.0 5.0 0.00 0.00 0.00 90 1019.6
20260506151605 55 5 2.0 4.0 0.00 0.00 0.00 93 1019.7
20260506150049 53 23 0.0 2.0 0.00 0.00 0.00 94 1019.7
20260506144545 52 22 2.0 4.0 0.00 0.00 0.00 94 1019.5
20260506143051 51 336 2.0 4.0 0.00 0.00 0.00 94 1019.5
20260506141543 51 332 1.0 4.0 0.00 0.00 0.00 94 1019.3
20260506140041 50 332 2.0 4.0 0.00 0.00 0.00 93 1019.2
20260506134539 50 332 2.0 3.0 0.00 0.00 0.00 93 1019.0
20260506133041 50 332 1.0 4.0 0.00 0.00 0.00 93 1018.9
20260506131537 50 49 3.0 5.0 0.00 0.00 0.00 93 1018.9
20260506130036 50 49 3.0 5.0 0.00 0.00 0.00 93 1018.9
20260506124534 50 49 3.0 4.0 0.00 0.00 0.00 93 1018.7
20260506123033 50 49 0.0 3.0 0.00 0.00 0.00 93 1018.4
20260506121533 50 49 0.0 4.0 0.00 0.00 0.00 93 1018.4
20260506120032 50 49 2.0 4.0 0.00 0.00 0.00 92 1018.3
20260506114539 50 49 3.0 5.0 0.00 0.00 0.00 92 1018.3
20260506113029 50 50 2.0 4.0 0.00 0.00 0.00 92 1018.4
20260506111527 50 50 3.0 4.0 0.00 0.00 0.00 92 1018.4
20260506110029 50 50 1.0 3.0 0.00 0.00 0.00 91 1018.3
20260506104524 51 50 2.0 3.0 0.00 0.00 0.00 91 1018.2
20260506103022 51 50 1.0 5.0 0.00 0.00 0.00 92 1018.2
20260506101539 51 50 2.0 5.0 0.00 0.00 0.00 92 1018.3
20260506100020 51 52 3.0 5.0 0.00 0.00 0.00 92 1018.3
20260506094519 51 54 4.0 6.0 0.00 0.00 0.00 92 1018.3
20260506093016 51 58 3.0 5.0 0.00 0.00 0.00 91 1018.3
20260506091520 51 57 3.0 5.0 0.00 0.00 0.00 91 1018.4
20260506090015 51 65 4.0 6.0 0.00 0.00 0.00 91 1018.4
20260506084517 51 67 2.0 4.0 0.00 0.00 0.00 90 1018.5
20260506083010 51 67 1.0 3.0 0.00 0.00 0.00 90 1018.5
20260506081509 52 67 1.0 4.0 0.00 0.00 0.00 90 1018.5
20260506073004 52 69 3.0 5.0 0.00 0.00 0.00 90 1018.4
20260506071502 52 64 2.0 4.0 0.00 0.00 0.00 90 1018.3
20260506070103 52 57 4.0 5.0 0.00 0.00 0.00 90 1018.1
20260506061557 53 15 2.0 5.0 0.00 0.00 0.00 89 1017.9
20260506044555 55 9 1.0 3.0 0.00 0.00 0.00 88 1017.1
20260506043048 55 9 3.0 0.0 0.00 0.00 0.00 89 1016.9
20260506041557 55 5 2.0 9.0 0.00 0.00 0.00 88 1016.6
20260506040045 55 321 3.0 9.0 0.00 0.00 0.00 88 1016.4
20260506034547 56 290 4.0 11.0 0.00 0.00 0.00 87 1016.4
20260506033045 56 302 4.0 10.0 0.00 0.00 0.00 86 1016.2
20260506031547 56 305 3.0 10.0 0.00 0.00 0.00 85 1016.1
20260506030044 57 313 3.0 11.0 0.00 0.00 0.00 84 1016.0
20260506024543 58 325 6.0 11.0 0.00 0.00 0.00 82 1016.0
20260506023044 59 302 4.0 12.0 0.00 0.00 0.00 81 1015.7
20260506021544 60 292 5.0 13.0 0.00 0.00 0.00 80 1015.8
20260506020041 60 281 8.0 15.0 0.00 0.00 0.00 79 1015.7
20260506014549 60 313 5.0 14.0 0.00 0.00 0.00 79 1015.7
20260506013041 61 259 8.0 14.0 0.00 0.00 0.00 78 1015.9
20260506011542 62 336 8.0 15.0 0.00 0.00 0.00 76 1015.8
20260506010038 62 268 8.0 17.0 0.00 0.00 0.00 76 1015.9
20260506004542 61 269 5.0 13.0 0.00 0.00 0.00 78 1015.7
20260506003037 61 273 7.0 14.0 0.00 0.00 0.00 77 1015.8
20260506001549 61 254 7.0 14.0 0.00 0.00 0.00 76 1016.1
20260506000043 63 254 7.0 16.0 0.00 0.00 0.00 74 1015.8
20260505234545 62 269 9.0 15.0 0.00 0.00 0.00 75 1015.9
20260505233034 62 305 7.0 14.0 0.00 0.00 0.00 74 1015.9
20260505231532 63 271 9.0 15.0 0.00 0.00 0.00 74 1016.0
20260505230033 62 320 7.0 13.0 0.00 0.00 0.00 77 1015.8
20260505224535 61 271 6.0 14.0 0.00 0.00 0.00 78 1015.9
20260505223038 63 267 6.0 12.0 0.00 0.00 0.00 76 1016.3